Location: Central Falls
(41.8900°N, 71.3929°W)
Time: 14:31:11
(UTC+00:00)

Courier 1B Rocket - Pass Details

Date: 07 December 2023
Orbit: 920 x 1202 km, 28.2° (Epoch: 01 March)

Event Time Altitude Azimuth Distance (km) Brightness Sun altitude
Rises 15:40:26 0° 224° (SW) 3,829 8.5 24.2°
Reaches altitude 10° 15:44:08 10° 206° (SSW) 2,818 8.3 24.3°
Maximum altitude 15:48:32 18° 166° (SSE) 2,212 9.8 24.5°
Drops below altitude 10° 15:52:47 10° 125° (SE) 2,698 8.1 24.7°
Sets 15:56:13 0° 107° (ESE) 3,606 8.3 24.8°
